DW9498 Weather Reports


time (UTC)temp
C
wind
direction
speed
KPH
gust
KPH
rain 1hr
cm
rain 24hr
cm
rain mn
cm
humidity
%
barometer
mb
20260906183328 32 153 1.6 6.4 0.00 0.03 0.03 62 1014.5
20260906182341 32 137 1.6 6.4 0.00 0.03 0.03 63 1014.7
20260906181330 32 221 0.0 6.4 0.00 0.03 0.03 65 1014.7
20260906180336 31 179 3.2 8.0 0.00 0.03 0.03 66 1014.8
20260906175326 31 265 1.6 4.8 0.00 0.03 0.03 65 1014.8
20260906174401 31 246 3.2 8.0 0.00 0.03 0.03 67 1015.0
20260906173329 30 158 0.0 4.8 0.00 0.03 0.03 69 1015.0
20260906172403 30 132 1.6 8.0 0.00 0.03 0.03 68 1015.2
20260906171330 30 167 1.6 4.8 0.00 0.03 0.03 70 1015.3
20260906170339 30 176 0.0 6.4 0.00 0.03 0.03 73 1015.4
20260906165325 29 273 0.0 1.6 0.00 0.03 0.03 75 1015.5
20260906164328 28 333 0.0 0.0 0.00 0.03 0.03 77 1015.5
20260906163338 28 280 0.0 0.0 0.00 0.03 0.03 78 1015.8
20260906162332 27 167 0.0 3.2 0.03 0.03 0.03 79 1016.0
20260906161404 27 184 0.0 0.0 0.03 0.03 0.03 82 1015.9
20260906160329 27 184 0.0 0.0 0.03 0.03 0.03 82 1016.0
20260906155341 27 184 0.0 0.0 0.03 0.03 0.03 82 1015.9
20260906154344 26 153 0.0 0.0 0.03 0.03 0.03 82 1016.0
20260906153332 27 157 0.0 0.0 0.03 0.03 0.03 80 1016.0
20260906152329 27 157 0.0 1.6 0.00 0.00 0.00 79 1016.2
20260906151329 27 141 0.0 1.6 0.00 0.00 0.00 78 1016.2
20260906150335 27 144 0.0 4.8 0.00 0.00 0.00 78 1015.6
20260906145326 27 164 0.0 3.2 0.00 0.00 0.00 78 1015.4
20260906144349 27 234 0.0 1.6 0.00 0.00 0.00 78 1015.3
20260906143354 27 240 0.0 1.6 0.00 0.00 0.00 79 1015.3
20260906142333 27 213 0.0 3.2 0.00 0.00 0.00 79 1015.3
20260906141339 27 251 0.0 1.6 0.00 0.00 0.00 79 1015.4
20260906140329 26 295 0.0 1.6 0.00 0.00 0.00 79 1015.4
20260906135358 26 234 0.0 1.6 0.00 0.00 0.00 79 1015.4
20260906134340 26 254 0.0 4.8 0.00 0.00 0.00 80 1015.5
20260906133350 26 221 0.0 3.2 0.00 0.00 0.00 80 1015.5
20260906132331 26 293 0.0 1.6 0.00 0.00 0.00 80 1015.4
20260906131333 26 254 0.0 1.6 0.00 0.00 0.00 82 1015.4
20260906130326 25 271 0.0 0.0 0.00 0.00 0.00 82 1015.4
20260906125338 25 332 0.0 0.0 0.00 0.00 0.00 83 1015.5
20260906124338 25 284 0.0 1.6 0.00 0.00 0.00 83 1015.3
20260906123347 25 286 0.0 0.0 0.00 0.00 0.00 83 1015.1
20260906122334 25 328 0.0 0.0 0.00 0.00 0.00 83 1014.9
20260906121344 25 324 0.0 0.0 0.00 0.00 0.00 83 1014.8
20260906120324 25 299 0.0 1.6 0.00 0.00 0.00 83 1014.8
20260906115335 25 240 0.0 0.0 0.00 0.00 0.00 83 1014.7
20260906114336 25 298 0.0 0.0 0.00 0.00 0.00 83 1014.5
20260906113347 25 325 0.0 0.0 0.00 0.00 0.00 83 1014.4
20260906112333 25 303 0.0 0.0 0.00 0.00 0.00 83 1014.4
20260906111337 25 271 0.0 0.0 0.00 0.00 0.00 83 1014.4
20260906110327 25 268 0.0 0.0 0.00 0.00 0.00 83 1014.6
20260906105341 25 269 0.0 0.0 0.00 0.00 0.00 83 1014.5
20260906104327 25 270 0.0 0.0 0.00 0.00 0.00 82 1014.5
20260906103357 25 336 0.0 0.0 0.00 0.00 0.00 82 1014.3
20260906102341 25 336 0.0 0.0 0.00 0.00 0.00 82 1014.1
20260906101346 25 336 0.0 0.0 0.00 0.00 0.00 82 1014.1
20260906100331 25 296 0.0 0.0 0.00 0.00 0.00 82 1014.2
20260906095344 25 296 0.0 0.0 0.00 0.00 0.00 82 1014.1
20260906094331 25 296 0.0 0.0 0.00 0.00 0.00 82 1014.0
20260906093334 25 296 0.0 0.0 0.00 0.00 0.00 82 1014.0
20260906092334 25 296 0.0 0.0 0.00 0.00 0.00 82 1014.1
20260906091339 25 296 0.0 0.0 0.00 0.00 0.00 82 1014.1
20260906090328 25 296 0.0 0.0 0.00 0.00 0.00 81 1014.2
20260906085341 25 296 0.0 0.0 0.00 0.00 0.00 81 1014.2
20260906084342 25 296 0.0 0.0 0.00 0.00 0.00 80 1014.2
20260906083331 25 296 0.0 0.0 0.00 0.00 0.00 79 1014.1
20260906082326 26 296 0.0 0.0 0.00 0.00 0.00 78 1014.0
20260906081401 26 296 0.0 0.0 0.00 0.00 0.00 78 1013.9
20260906080352 26 303 0.0 0.0 0.00 0.00 0.00 78 1014.0
20260906075324 26 225 0.0 0.0 0.00 0.00 0.00 77 1013.9
20260906074327 26 230 0.0 4.8 0.00 0.00 0.00 77 1013.8
20260906073335 26 353 0.0 0.0 0.00 0.00 0.00 77 1013.8
20260906072330 26 230 0.0 1.6 0.00 0.00 0.00 77 1013.8
20260906071358 26 304 0.0 3.2 0.00 0.00 0.00 77 1013.9
20260906070408 26 243 0.0 0.0 0.00 0.00 0.00 76 1014.0
20260906065330 26 316 0.0 0.0 0.00 0.00 0.00 76 1014.1
20260906064331 26 260 0.0 0.0 0.00 0.00 0.00 76 1014.2
20260906063338 26 267 0.0 0.0 0.00 0.00 0.00 76 1014.2
20260906062338 26 271 0.0 0.0 0.00 0.00 0.00 76 1014.3
20260906061343 27 307 0.0 0.0 0.00 0.00 0.00 76 1014.3
20260906060333 27 307 0.0 0.0 0.00 0.00 0.00 76 1014.3
20260906055327 27 325 0.0 0.0 0.00 0.00 0.00 75 1014.2
20260906054326 27 332 0.0 0.0 0.00 0.00 0.00 75 1014.2
20260906053329 27 333 0.0 0.0 0.00 0.00 0.00 75 1014.2
20260906052339 27 332 0.0 0.0 0.00 0.00 0.00 75 1014.2
20260906051325 27 330 0.0 1.6 0.00 0.00 0.00 74 1014.2
20260906050335 27 325 0.0 0.0 0.00 0.00 0.00 74 1014.3
20260906045340 28 330 0.0 0.0 0.00 0.00 0.00 73 1014.2
20260906044329 28 330 0.0 0.0 0.00 0.00 0.00 73 1014.2
20260906043323 28 330 0.0 0.0 0.00 0.00 0.00 73 1014.2
20260906042335 28 325 0.0 0.0 0.00 0.00 0.00 73 1014.3
20260906041325 28 325 0.0 0.0 0.00 0.00 0.00 73 1014.2
20260906040332 28 325 0.0 0.0 0.00 0.00 0.00 73 1014.3
20260906035326 28 325 0.0 0.0 0.00 0.00 0.00 73 1014.3
20260906034330 28 325 0.0 0.0 0.00 0.00 0.00 72 1014.2
20260906033339 28 325 0.0 0.0 0.00 0.00 0.00 72 1014.2
20260906032325 28 325 0.0 0.0 0.00 0.00 0.00 73 1014.1
20260906031349 28 315 0.0 0.0 0.00 0.00 0.00 73 1014.0
20260906030338 29 315 0.0 0.0 0.00 0.00 0.00 73 1013.9
20260906025335 29 345 0.0 0.0 0.00 0.00 0.00 72 1013.5
20260906024337 29 357 0.0 3.2 0.00 0.00 0.00 72 1013.4
20260906023344 30 329 0.0 0.0 0.00 0.00 0.00 71 1013.2
20260906022332 30 329 0.0 0.0 0.00 0.00 0.00 71 1013.3
20260906021335 30 330 0.0 0.0 0.00 0.00 0.00 71 1013.1
20260906020342 30 313 0.0 0.0 0.00 0.00 0.00 71 1012.9
20260906015328 30 312 0.0 0.0 0.00 0.00 0.00 71 1012.6
20260906014350 30 312 0.0 0.0 0.00 0.00 0.00 70 1012.5
20260906013332 30 312 0.0 0.0 0.00 0.00 0.00 70 1012.4
20260906012327 30 336 0.0 0.0 0.00 0.00 0.00 69 1012.4
20260906011337 31 336 0.0 0.0 0.00 0.00 0.00 68 1012.3
20260906010349 31 341 0.0 0.0 0.00 0.00 0.00 67 1012.2
20260906005325 31 277 0.0 0.0 0.00 0.00 0.00 67 1012.1
20260906004333 32 275 0.0 0.0 0.00 0.00 0.00 66 1012.2
20260906003407 32 304 0.0 0.0 0.00 0.00 0.00 65 1012.1
20260906002333 32 273 0.0 1.6 0.00 0.00 0.00 63 1011.9
20260906001339 33 347 0.0 3.2 0.00 0.00 0.00 62 1011.9
20260906000334 33 239 0.0 3.2 0.00 0.00 0.00 61 1011.9
20260905235349 34 270 1.6 3.2 0.00 0.00 0.00 59 1012.0
20260905234346 35 235 0.0 1.6 0.00 0.00 0.00 58 1012.0
20260905233330 35 292 0.0 4.8 0.00 0.00 0.00 58 1011.9
20260905232337 35 263 0.0 0.0 0.00 0.00 0.00 57 1011.9
20260905231337 35 262 0.0 3.2 0.00 0.00 0.00 56 1011.9
20260905230347 36 243 0.0 4.8 0.00 0.00 0.00 56 1011.9
20260905225351 36 225 0.0 3.2 0.00 0.00 0.00 56 1011.9
20260905224336 35 152 0.0 4.8 0.00 0.00 0.00 56 1011.8
20260905223347 35 315 1.6 6.4 0.00 0.00 0.00 55 1011.6
20260905222333 35 202 1.6 8.0 0.00 0.00 0.00 55 1011.6
20260905221337 35 350 1.6 6.4 0.00 0.00 0.00 56 1011.5
20260905220348 35 342 1.6 8.0 0.00 0.00 0.00 55 1011.5
20260905215355 35 221 3.2 6.4 0.00 0.00 0.00 54 1011.6
20260905214338 35 249 1.6 8.0 0.00 0.00 0.00 55 1011.8
20260905213329 34 282 0.0 6.4 0.00 0.00 0.00 56 1011.9
20260905212344 35 328 3.2 4.8 0.00 0.00 0.00 53 1012.0
20260905211358 35 221 0.0 4.8 0.00 0.00 0.00 55 1012.2
20260905210410 34 146 1.6 4.8 0.00 0.00 0.00 54 1012.5
20260905205351 34 211 1.6 9.7 0.00 0.00 0.00 56 1012.5
20260905204359 34 356 1.6 6.4 0.00 0.00 0.00 55 1012.8
20260905203348 34 314 1.6 4.8 0.00 0.00 0.00 55 1013.0
20260905202329 33 21 0.0 6.4 0.00 0.00 0.00 56 1013.2
20260905201403 33 12 1.6 4.8 0.00 0.00 0.00 53 1013.5
20260905200333 33 352 1.6 8.0 0.00 0.00 0.00 53 1014.0
20260905195328 33 289 3.2 9.7 0.00 0.00 0.00 53 1014.1
20260905194333 33 210 1.6 4.8 0.00 0.00 0.00 57 1014.1
20260905193324 33 356 3.2 9.7 0.00 0.00 0.00 57 1014.2
20260905192334 33 346 1.6 6.4 0.00 0.00 0.00 58 1014.2
20260905191340 33 355 3.2 8.0 0.00 0.00 0.00 59 1014.4
20260905190329 32 359 1.6 11.3 0.00 0.00 0.00 61 1014.6
20260905185325 32 17 4.8 12.9 0.00 0.00 0.00 60 1014.9
20260905184349 32 16 1.6 8.0 0.00 0.00 0.00 61 1015.2